一网星座-0061星 (ONEWEB-0061 )

导读

ONEWEB-0061是英国一网(OneWeb)星座的低轨通信卫星,于2020年3月21日发射入轨,由OneWeb与空客合资企业建造。单星重约147.5公斤,配备Ku波段通信天线,采用霍尔效应推进器,设计寿命5年,运行在近地轨道。作为OneWeb第一代组网卫星,它为后续构建全球低轨宽带互联网星座提供支撑,可提供高速卫星互联网接入服务,助力实现全球网络覆盖,是全球第二大低轨卫星星座的重要组成部分。

基本信息
目录编号:
45428
目录名称:
ONEWEB-0061
国际标识:
2020-020E
轨道中心:
EARTH
卫星名称:
一网星座-0061星
卫星全名:
一网星座-0061星 (ONEWEB-0061 )
卫星状态:
在轨 (已飞行2365 天)
发射日期:
2020-03-21 UTC
国别 :
英国 (GB)
星等 :
--
该卫星已列入 空间交会检测服务 Space Conjunction Data Service (SCDS) ,当前飞行风险评估等级: 无高风险
轨道信息
数据来源 国际轨道数据 AOE轨道数据
星历时间 2026-09-11T15:23:02+0800
5小时前
查看轨道信息
2026-09-06T06:00:00+0800
5天前
查看轨道信息
半长轴 7595.83km 7595.802km
偏心率 0.000181 0.0001775
轨道倾角 87.897° 87.895°
近地点辐角 100.526° 97.914°
升交点赤经 3.937° 5.005°
平近点角 259.608° 25.336°
近地点 1216.318km 1216.316km
远地点 1219.068km 1219.014km
周期 109.805分钟 109.804分钟
每日圈数 13.114145 13.114217
详细信息
平衡模式:
三轴稳定
覆盖范围:
全球
运营商:
一网卫星公司
运营商所在国:
英国
制造商(研发单位):
一网卫星公司
制造商所在国:
英国
使用方式:
暂无
卫星简介
OneWeb卫星网络由648颗重约125公斤的微型卫星组成,运行在1200公里的轨道上。 每颗卫星都能够提供至少每秒8千兆位的吞吐量,以使用其高吞吐量的Ku频段有效载荷为家庭和移动平台提供互联网接入。该卫星仍在工作。
2D轨道图
3D轨道图
轨道高度分析图
轨道倾角分析图
轨道综合分析图
查看轨道综合分析图
与全量物体交会距离演化趋势
与全量物体交会风险概率演化趋势